User: anonymous   Login
Location: Weston
(26.1283°N, 80.4075°W)
Time: 10:02:39
(UTC-04:00)
Language:

H-2A R/B - Orbit

View from above orbital plane
View from above orbital plane
View from above satellite
View from above satellite

Ground track
Ground track

The orbit data is extracted from the following two-line orbital elements,

1 26899U 01038B   15147.64985294  .00004766  00000-0  15316-2 0  9992
2 26899 028.4088 009.5795 7141721 052.0359 357.6821 02.45460069117959
Epoch (UTC): 27 May 2015 15:35:47
Eccentricity: 0.7141721
inclination: 28.4088°
perigee height: 257 km
apogee height: 33414 km
right ascension of ascending node: 9.5795°
argument of perigee: 52.0359°
revolutions per day: 2.45460069
mean anomaly at epoch: 357.6821°
orbit number at epoch: 11795

The dashed part of the orbit path shows where the satellite is in the earth's shadow,  

DLR